Zurück zum Katalog

COSMOS 970 DEB

AktivLEO
NORAD 64976·DEBRIS·🇷🇺 Russia

Gestartet Dec 21, 1977 von Baikonur Cosmodrome

Loading…

Nächste Überflüge (nächste 24 Stunden)

TLE

AlterndSource: Space-Track

Epoche: Sep 9, 2026, 03:01 UTC

1 64976U 77121CM  26252.12600115  .00000116  00000-0  37159-3 0  9999
2 64976  65.9381 189.1009 0102112 227.9679 146.4121 13.32919876618219

Verfolge COSMOS 970 DEB in Echtzeit mit AllMySat

Download on the App Store